Skip Page Navigation
NASA JPL Caltech
NASA Logo - Jet Propulsion Laboratory + View the NASA Portal
+ Center for Near-Earth Object Studies
JPL Home Earth Solar System Stars & Galaxies Technology
JPL Solar System Dynamics
BODIES ORBITS EPHEMERIDES TOOLS PHYSICAL DATA DISCOVERY FAQ SITE MAP
JPL Small-Body Database Browser
Search: [ help ]  
351799 (2006 JT45)
Classification: Main-belt Asteroid          SPK-ID: 2351799
Ephemeris | Orbit Diagram | Orbital Elements | Mission Design | Physical Parameters | Discovery Circumstances | Close-Approach Data ]

[ show orbit diagram ]
Orbital Elements at Epoch 2459000.5 (2020-May-31.0) TDB
Reference: JPL 10 (heliocentric ecliptic J2000)
 Element Value Uncertainty (1-sigma)   Units 
e .09776461345918291 7.6925e-08  
a 2.666888124903198 3.2743e-08 au
q 2.406160838233152 2.051e-07 au
i 16.94919678299031 8.3593e-06 deg
node 264.8886601027955 2.2854e-05 deg
peri 330.8975674120689 5.1284e-05 deg
M 122.7415434172171 4.6801e-05 deg
tp 2458458.131195164256
(2018-Dec-05.63119516)
0.00020806 TDB
period 1590.763520686504
4.36
2.9296e-05
8.021e-08
d
yr
n .2263064216135907 4.1678e-09 deg/d
Q 2.927615411573245 3.5944e-08 au
  Orbit Determination Parameters
   # obs. used (total)      185  
   data-arc span      6216 days (17.02 yr)  
   first obs. used      2002-08-14  
   last obs. used      2019-08-21  
   planetary ephem.      DE431  
   SB-pert. ephem.      SB431-N16  
   condition code      0  
   norm. resid. RMS      .53754  
   source      ORB  
   producer      Otto Matic  
   solution date      2019-Sep-24 06:37:19  

Additional Information
 Earth MOID = 1.40351 au 
 Jupiter MOID = 2.16579 au 
 T_jup = 3.314 
[ hide covariance matrix ]
Orbital Elements at Epoch 2457387.5 (2015-Dec-31.0) TDB
Reference: JPL 10 (heliocentric ecliptic J2000)
 Element Value Uncertainty (1-sigma)   Units 
e .097095090215454 7.7181e-08  
q 2.409235823075368 2.0603e-07 au
tp 2456868.913826289805
(2014-Jul-30.41382629)
0.00021473 TDB
node 264.9133157613145 2.2869e-05 deg
peri 331.5362925143777 5.1287e-05 deg
i 16.93944605463043 8.3537e-06 deg
  Orbit Determination Parameters
   # obs. used (total)      185  
   data-arc span      6216 days (17.02 yr)  
   first obs. used      2002-08-14  
   last obs. used      2019-08-21  
   planetary ephem.      DE431  
   SB-pert. ephem.      SB431-N16  
   condition code      0  
   norm. resid. RMS      .53754  
   source      ORB  
   producer      Otto Matic  
   solution date      2019-Sep-24 06:37:19  

Additional Information
 Jupiter MOID = 2.16579 au 
 T_jup = 3.314 
Orbit Covariance (6×6)
  e q tp node peri i
e 5.956854909519411E-15 -1.573576097783813E-14 6.466346106230411E-12 -1.457159936721897E-14 1.156069416985027E-12 1.369247699403961E-15
q -1.573576097783813E-14 4.244927087171819E-14 -1.912718532716235E-11 4.105919986518177E-14 -3.43712175956367E-12 1.555050053672126E-15
tp 6.466346106230411E-12 -1.912718532716235E-11 4.610980719535832E-8 -5.150117170401577E-11 9.864986498553976E-9 -6.272009558168982E-11
node -1.457159936721897E-14 4.105919986518177E-14 -5.150117170401577E-11 5.229839103439868E-10 -5.104881181896902E-10 5.64869894667367E-11
peri 1.156069416985027E-12 -3.43712175956367E-12 9.864986498553976E-9 -5.104881181896902E-10 2.630393807026935E-9 -6.751242427653233E-11
i 1.369247699403961E-15 1.555050053672126E-15 -6.272009558168982E-11 5.64869894667367E-11 -6.751242427653233E-11 6.978493824348843E-11

Ephemeris | Orbit Diagram | Orbital Elements | Mission Design | Physical Parameters | Discovery Circumstances | Close-Approach Data ]

Physical Parameter Table
Parameter Symbol Value Units Sigma Reference Notes
absolute magnitude H 15.7   n/a MPO434219  

351799 (2006 JT45)          Discovered 2006-May-08 by Mt. Lemmon Survey at Mount Lemmon
Reference: 20130127/Numbers.arcLast Updated: 2013-01-31

[ show close-approach data ]
Alternate Designations
 2006 JT45 = 2003 YG173 
Ephemeris | Orbit Diagram | Orbital Elements | Mission Design | Physical Parameters | Discovery Circumstances | Close-Approach Data ]
ABOUT SSD CREDITS/AWARDS PRIVACY/COPYRIGHT GLOSSARY LINKS
FirstGov 2020-Aug-11 19:17 UT
(server date/time)  
NASA Home Page
Site Manager:   Ryan S. Park
Webmaster  Alan B. Chamberlin